Weather History for Columbus, OH

Change the Weather History Date:

Friday, April 18, 2014

  Actual Average Record
Temperature  
Mean Temperature 58 °F 54 °F  
Max Temperature 71 °F 65 °F 89 °F (1896)
Min Temperature 44 °F 43 °F 22 °F (1953)
Degree Days  
Heating Degree Days 7 11  
Month to date heating degree days 211 257  
Since 1 July heating degree days 5432 4968  
Cooling Degree Days 0 0  
Month to date cooling degree days 6 0  
Year to date cooling degree days 6 0  
Growing Degree Days 8 (Base 50)    
Moisture  
Dew Point 34 °F    
Average Humidity 46    
Maximum Humidity 65    
Minimum Humidity 26    
Precipitation  
Precipitation 0.00 in 0.11 in 1.61 in (1885)
Month to date precipitation 2.68 2.03  
Year to date precipitation 10.06 10.03  
Snow  
Snow 0.00 in 0.10 in 4.10 in (1953)
Month to date snowfall 0.9 1.0  
Since 1 July snowfall 56.4 26.6  
Snow Depth 0.00 in    
Sea Level Pressure  
Sea Level Pressure 30.26 in    
Wind  
Wind Speed 3 mph (West)    
Max Wind Speed 13 mph    
Max Gust Speed 18 mph    
Visibility 10 miles    
Events      
T = Trace of Precipitation, MM = Missing Value Source: NWS Daily Summary

Daily Weather History Graph

Daily Weather History Graph

Search for Another Location

Airport:

Trip Planner

Search our weather history database for the weather conditions in past years. The results will help you decide how hot, cold, wet, or windy it might be!

Date:

Astronomy

Apr. 18, 2014 Rise Set
Actual Time 6:49 AM EDT 8:13 PM EDT
Civil Twilight 6:21 AM EDT 8:41 PM EDT
Nautical Twilight 5:47 AM EDT 9:15 PM EDT
Astronomical Twilight 5:11 AM EDT 9:51 PM EDT
Moon 11:57 PM EDT (4/18) 9:10 AM EDT (4/18)
Length of Visible Light 14h 20m
Length of Day
13h 23m
Waning Gibbous, 87% of the Moon is Illuminated
Apr 18
Waning Gibbous
Apr 22
Last Quarter
Apr 29
New
May 6
First Quarter
May 14
Full

Hourly Weather History & Observations

Time (EDT) Temp. Windchill Dew Point Humidity Pressure Visibility Wind Dir Wind Speed Gust Speed Precip Events Conditions
12:51 AM 48.9 °F - 34.0 °F 56% 30.27 in 10.0 mi Calm Calm - N/A   Partly Cloudy
1:51 AM 48.0 °F - 36.0 °F 63% 30.27 in 10.0 mi Calm Calm - N/A   Partly Cloudy
2:51 AM 46.0 °F - 35.1 °F 66% 30.26 in 10.0 mi Calm Calm - N/A   Scattered Clouds
3:51 AM 44.1 °F - 34.0 °F 68% 30.26 in 10.0 mi Calm Calm - N/A   Scattered Clouds
4:51 AM 48.0 °F - 32.0 °F 54% 30.26 in 10.0 mi Calm Calm - N/A   Overcast
5:51 AM 45.0 °F 43.5 °F 33.1 °F 63% 30.28 in 10.0 mi ESE 3.5 mph - N/A   Mostly Cloudy
6:51 AM 45.0 °F 43.5 °F 33.1 °F 63% 30.28 in 10.0 mi ESE 3.5 mph - N/A   Overcast
7:51 AM 48.9 °F - 30.9 °F 50% 30.29 in 10.0 mi Calm Calm - N/A   Overcast
8:51 AM 52.0 °F - 30.9 °F 45% 30.30 in 10.0 mi Calm Calm - N/A   Mostly Cloudy
9:51 AM 55.9 °F - 28.9 °F 36% 30.29 in 10.0 mi Calm Calm - N/A   Mostly Cloudy
10:51 AM 57.2 °F - 32.0 °F 38% 30.30 in 10.0 mi WSW 3.5 mph - N/A   Mostly Cloudy
11:51 AM 63.0 °F - 32.0 °F 31% 30.29 in 10.0 mi Calm Calm - N/A   Mostly Cloudy
12:51 PM 66.0 °F - 34.0 °F 30% 30.27 in 10.0 mi Calm Calm - N/A   Mostly Cloudy
1:51 PM 66.9 °F - 35.1 °F 31% 30.27 in 10.0 mi WSW 6.9 mph - N/A   Mostly Cloudy
2:51 PM 70.0 °F - 34.0 °F 27% 30.25 in 10.0 mi WSW 10.4 mph - N/A   Mostly Cloudy
3:51 PM 70.0 °F - 35.1 °F 28% 30.24 in 10.0 mi West 4.6 mph - N/A   Mostly Cloudy
4:51 PM 69.1 °F - 34.0 °F 27% 30.22 in 9.0 mi WNW 10.4 mph - N/A   Overcast
5:51 PM 68.0 °F - 35.1 °F 30% 30.22 in 10.0 mi West 8.1 mph - N/A   Overcast
6:51 PM 68.0 °F - 36.0 °F 31% 30.21 in 10.0 mi WNW 9.2 mph - N/A   Mostly Cloudy
7:51 PM 66.0 °F - 36.0 °F 33% 30.20 in 10.0 mi NW 5.8 mph - N/A   Mostly Cloudy
8:51 PM 63.0 °F - 37.0 °F 38% 30.21 in 10.0 mi Calm Calm - N/A   Scattered Clouds
9:51 PM 60.1 °F - 37.0 °F 42% 30.23 in 10.0 mi Calm Calm - N/A   Scattered Clouds
10:51 PM 57.2 °F - 37.4 °F 48% 30.23 in 10.0 mi Calm Calm - N/A   Scattered Clouds
11:51 PM 53.6 °F - 39.2 °F 58% 30.23 in 10.0 mi Calm Calm - N/A   Partly Cloudy